EW1898 Weather Reports


time (UTC)temp
F
wind
direction
speed
knots
gust
knots
rain 1hr
in
rain 24hr
in
rain mn
in
humidity
%
barometer
mb
20260510163031 66 307 0.9 6.1 0.00 0.31 0.00 74 1011.9
20260510161527 65 302 0.0 5.2 0.00 0.31 0.00 76 1011.9
20260510160027 64 318 1.7 5.2 0.00 0.31 0.00 75 1012.1
20260510154524 64 355 0.0 2.6 0.00 0.33 0.00 81 1012.1
20260510153034 62 318 0.0 3.5 0.00 0.33 0.00 85 1012.3
20260510151516 61 89 0.0 4.3 0.00 0.33 0.00 87 1012.4
20260510150012 58 333 0.9 3.5 0.00 0.33 0.00 88 1012.4
20260510144515 58 281 0.0 5.2 0.00 0.36 0.00 91 1012.5
20260510143005 57 265 0.0 1.7 0.00 0.36 0.00 92 1012.6
20260510141502 56 303 0.0 2.6 0.00 0.36 0.00 94 1012.7
20260510140100 56 295 0.0 0.9 0.00 0.36 0.00 95 1012.7
20260510134558 55 295 0.0 2.6 0.00 0.38 0.00 97 1012.6
20260510133055 54 295 0.0 0.9 0.00 0.38 0.00 98 1012.6
20260510131553 53 299 0.0 0.9 0.00 0.38 0.00 98 1012.6
20260510130051 53 299 0.0 0.9 0.00 0.38 0.00 98 1012.6
20260510124551 53 299 0.0 2.6 0.00 0.38 0.00 98 1012.8
20260510123049 52 300 0.0 3.5 0.00 0.38 0.00 98 1012.6
20260510121552 52 317 0.0 1.7 0.00 0.38 0.00 99 1012.6
20260510120045 52 243 0.0 2.6 0.00 0.38 0.00 99 1012.4
20260510114545 52 152 0.0 0.9 0.00 0.38 0.00 99 1012.5
20260510113043 50 152 0.0 0.9 0.00 0.38 0.00 99 1012.6
20260510111539 50 286 0.0 0.9 0.00 0.38 0.00 99 1012.7
20260510110039 50 175 0.0 0.9 0.00 0.38 0.00 99 1012.1
20260510104535 50 161 0.0 0.9 0.00 0.38 0.00 99 1012.2
20260510103041 49 202 0.0 1.7 0.00 0.38 0.00 99 1011.7
20260510101531 49 281 0.0 0.9 0.00 0.38 0.00 99 1011.9
20260510100034 49 282 0.0 0.0 0.00 0.38 0.00 99 1012.0
20260510094630 48 282 0.0 0.9 0.00 0.38 0.00 99 1012.0
20260510093029 48 282 0.0 0.9 0.00 0.38 0.00 99 1011.9
20260510091528 48 282 0.0 0.0 0.00 0.38 0.00 99 1011.7
20260510090034 48 282 0.0 0.0 0.00 0.38 0.00 99 1011.7
20260510084528 48 282 0.0 0.0 0.00 0.38 0.00 99 1011.9
20260510083036 47 282 0.0 0.0 0.00 0.38 0.00 98 1011.6
20260510081526 47 282 0.0 0.0 0.00 0.38 0.00 98 1011.7
20260510080030 47 282 0.0 0.0 0.00 0.38 0.00 98 1011.3
20260510074524 47 282 0.0 0.9 0.00 0.38 0.00 98 1011.4
20260510073029 47 282 0.0 0.0 0.00 0.38 0.00 98 1011.3
20260510071534 48 282 0.0 0.9 0.00 0.38 0.00 98 1011.0
20260510070027 48 282 0.0 0.0 0.00 0.38 0.00 98 1010.8
20260510064524 49 282 0.0 0.9 0.00 0.38 0.00 98 1011.0
20260510063019 49 282 0.0 0.9 0.00 0.38 0.00 98 1011.1
20260510061515 49 282 0.0 0.0 0.00 0.38 0.00 98 1011.4
20260510060016 49 282 0.0 0.9 0.00 0.38 0.00 98 1011.3
20260510054518 49 282 0.0 0.0 0.00 0.38 0.00 98 1011.4
20260510053011 49 282 0.0 0.0 0.00 0.38 0.00 98 1011.7
20260510051515 49 282 0.0 0.0 0.00 0.38 0.00 98 1011.8
20260510050010 49 282 0.0 0.0 0.00 0.38 0.00 98 1011.7
20260510044509 48 282 0.0 0.9 0.00 0.38 0.00 98 1011.8
20260510043006 48 282 0.0 0.0 0.00 0.38 0.00 98 1011.9
20260510041502 48 282 0.0 0.0 0.00 0.38 0.00 98 1011.9
20260510040100 48 282 0.0 0.0 0.00 0.38 0.00 98 1011.6
20260510034557 48 282 0.0 0.9 0.00 0.38 0.38 98 1011.9
20260510033059 48 282 0.0 0.9 0.00 0.38 0.38 98 1011.8
20260510031559 48 282 0.0 0.9 0.00 0.38 0.38 98 1012.1
20260510030056 48 282 0.0 0.0 0.00 0.38 0.38 98 1012.3
20260510024559 48 282 0.0 0.0 0.00 0.38 0.38 98 1012.5
20260510023052 48 282 0.0 0.9 0.00 0.38 0.38 98 1012.4
20260510021552 48 282 0.0 0.0 0.00 0.38 0.38 98 1012.6
20260510020054 47 282 0.0 0.0 0.00 0.38 0.38 98 1012.7
20260510014550 47 282 0.0 0.9 0.00 0.38 0.38 98 1012.6
20260510013103 47 282 0.0 0.0 0.01 0.38 0.38 98 1012.8
20260510011549 47 282 0.0 0.9 0.01 0.38 0.38 98 1012.6
20260510004557 46 174 0.0 1.7 0.02 0.38 0.38 97 1012.2
20260510003048 46 189 0.0 1.7 0.02 0.37 0.37 97 1012.2
20260510001547 46 208 0.0 0.0 0.03 0.37 0.37 97 1012.6
20260510000047 46 205 0.0 1.7 0.04 0.37 0.37 97 1012.6
20260509234600 46 210 0.0 0.9 0.04 0.36 0.36 97 1012.6
20260509233045 46 162 0.0 1.7 0.04 0.35 0.35 97 1012.4
20260509231546 46 210 0.0 0.0 0.04 0.34 0.34 97 1012.3
20260509230045 46 157 0.0 1.7 0.03 0.33 0.33 97 1012.1
20260509224545 46 251 0.0 2.6 0.03 0.32 0.32 97 1012.1
20260509223043 46 155 0.0 1.7 0.04 0.31 0.31 97 1012.2
20260509221601 46 179 0.0 1.7 0.07 0.30 0.30 97 1012.4
20260509220048 47 269 0.0 0.9 0.09 0.30 0.30 96 1012.6
20260509214540 47 258 0.0 0.9 0.14 0.28 0.28 96 1012.6
20260509213041 47 272 0.0 0.9 0.13 0.27 0.27 96 1012.7
20260509211539 47 252 0.0 0.9 0.10 0.23 0.23 96 1012.7
20260509210042 47 260 0.0 1.7 0.08 0.21 0.21 96 1012.7
20260509204538 47 227 0.0 0.9 0.02 0.15 0.15 96 1012.8
20260509203044 48 229 0.0 2.6 0.01 0.14 0.14 96 1012.6
20260509201536 48 198 0.0 0.0 0.00 0.13 0.13 96 1012.6
20260509200042 48 198 0.0 0.9 0.00 0.13 0.13 96 1012.7
20260509194536 48 215 0.0 1.7 0.00 0.13 0.13 96 1012.7
20260509193041 48 219 0.0 1.7 0.00 0.13 0.13 95 1012.6
20260509191534 48 201 0.0 2.6 0.00 0.13 0.13 96 1012.2
20260509190043 48 274 0.0 1.7 0.00 0.13 0.13 96 1012.6
20260509184534 48 173 0.0 3.5 0.01 0.13 0.13 96 1012.9
20260509183034 47 233 0.0 2.6 0.02 0.13 0.13 95 1013.0
20260509181524 47 231 0.0 0.9 0.03 0.13 0.13 96 1013.6
20260509180023 47 227 0.0 1.7 0.03 0.13 0.13 95 1013.4
20260509174526 47 250 0.0 0.9 0.02 0.12 0.12 95 1013.7
20260509173021 47 249 0.0 0.9 0.03 0.11 0.11 95 1013.7
20260509171523 47 208 0.0 0.9 0.02 0.10 0.10 95 1013.9
20260509170029 46 198 0.0 0.0 0.03 0.10 0.10 95 1014.1
20260509164518 46 197 0.0 0.0 0.04 0.10 0.10 95 1014.1